Regional Weather Roundup
Issued by NWS Little Rock, AR

Home | Current Version | Previous Version | Text Only | Print | Product List | Glossary On
Versions: 1 2 3 4 5 6 7 8 9 10 11 12 13 14 15 16 17 18 19 20 21 22 23 24 25 26 27 28 29 30 31 32
000
ASUS44 KLZK 231305
RWRLZK

WEATHER ROUNDUP FOR ARKANSAS
NATIONAL WEATHER SERVICE LITTLE ROCK AR
800 AM CDT WED AUG 23 2017

NOTE: "FAIR" INDICATES FEW OR NO CLOUDS BELOW 12,000 FEET WITH NO
SIGNIFICANT WEATHER AND/OR OBSTRUCTIONS TO VISIBILITY.

ARZ001-003-010-029-231400-
NORTHWEST ARKANSAS

CITY           SKY/WX    TMP DP  RH WIND       PRES   REMARKS
FAYETTEVILLE   CLOUDY    70  66  87 NE5       30.10R
FORT SMITH     LGT RAIN  73  72  96 NE3       30.05R
HARRISON       CLOUDY    69  62  78 NE7       30.12R
BENTONVILLE    MOSUNNY   68  61  77 NE9       30.11S
ROGERS         CLOUDY    68  61  78 NE8       30.12S
HIGHFILL       CLOUDY    69  63  81 NE8       30.11S
SPRINGDALE     MOSUNNY   70  64  83 NE7       30.12R
$$

ARZ004-005-016-231400-
NORTH CENTRAL ARKANSAS

CITY           SKY/WX    TMP DP  RH WIND       PRES   REMARKS
FLIPPIN        CLOUDY    72  57  60 NE7       30.08S
MTN HOME       CLOUDY    69  63  81 VRB6      30.10S
$$

ARZ040-041-231400-
WEST CENTRAL ARKANSAS

CITY           SKY/WX    TMP DP  RH WIND       PRES   REMARKS
MENA           CLOUDY    73  72  94 CALM      30.08S
MOUNT IDA      CLOUDY    72  69  90 CALM      30.03F
$$

ARZ009-017-025-026-028-231400-
NORTHEAST ARKANSAS

CITY           SKY/WX    TMP DP  RH WIND       PRES   REMARKS
JONESBORO      CLOUDY    72  66  81 NE8       30.06R
NEWPORT        PTSUNNY   71  66  84 NE9       30.07R
WALNUT RIDGE   PTSUNNY   70  63  78 N6        30.09R
BLYTHEVILLE    SUNNY     72  69  90 N8        30.07R
$$

ARZ022-023-033-042-044-231400-
CENTRAL ARKANSAS

CITY           SKY/WX    TMP DP  RH WIND       PRES   REMARKS
LITTLE ROCK    CLOUDY    74  73  97 VRB5      30.04S
N LITTLE ROCK    N/A     73  71  93 N6        30.04S
JACKSONVILLE   CLOUDY    76  75  96 NW3       30.04S
CONWAY           N/A     73  72  94 CALM      30.03F
SEARCY         CLOUDY    75  70  84 N9        30.07R
HOT SPRINGS    PTSUNNY   74  73  97 CALM      30.05R
RUSSELLVILLE   CLOUDY    72  72 100 CALM      30.04F
CLINTON        PTSUNNY   73  72  94 CALM      30.07R
$$

ARZ036-231400-
EAST ARKANSAS

CITY           SKY/WX    TMP DP  RH WIND       PRES   REMARKS
WEST MEMPHIS   CLOUDY    75  73  93 N8        30.03R
$$

ARZ050-053-066-070-073-231400-
SOUTHWEST ARKANSAS

CITY           SKY/WX    TMP DP  RH WIND       PRES   REMARKS
ARKADELPHIA    FAIR      73  72  96 NE6       30.02F
CAMDEN         CLOUDY    77  72  83 N5        30.01R
TEXARKANA      PTSUNNY   75  72  90 N7        30.03R
EL DORADO      MOSUNNY   76  74  93 NW6       30.02S
DE QUEEN       LGT RAIN  74  74 100 CALM      30.04F
$$

ARZ056-057-069-231400-
SOUTHEAST ARKANSAS

CITY           SKY/WX    TMP DP  RH WIND       PRES   REMARKS
PINE BLUFF     PTSUNNY   77  72  84 N9        30.03S
MONTICELLO     PTSUNNY   77  73  87 NE6       30.02R

$$






USA.gov is the U.S. government's official web portal to all federal, state and local government web resources and services.